Date,TemperatureHighF,TemperatureAvgF,TemperatureLowF,DewpointHighF,DewpointAvgF,DewpointLowF,HumidityHigh,HumidityAvg,HumidityLow,PressureMaxIn,PressureMinIn,WindSpeedMaxMPH,WindSpeedAvgMPH,GustSpeedMaxMPH,PrecipitationSumIn
2013-2-1,65,49,42,46,40,33,94,72,32,30.33,30.23,0,0,0,0.00
2013-2-2,64,50,34,54,44,30,98,80,64,30.28,30.12,0,0,0,0.00
2013-2-3,65,55,44,54,46,41,98,76,45,30.20,30.05,0,0,0,0.00
2013-2-4,60,52,41,58,48,37,100,86,66,30.05,29.89,0,0,0,0.46
2013-2-5,69,60,53,62,58,52,100,93,75,29.97,29.86,0,0,0,0.24
2013-2-6,64,58,52,61,58,52,100,97,85,30.07,29.92,0,0,0,0.07
2013-2-7,78,65,54,64,59,52,100,83,53,29.92,29.72,0,0,0,1.62
2013-2-8,75,60,51,65,56,49,100,87,60,30.09,29.89,0,0,1,0.01
2013-2-9,63,56,48,60,52,44,96,87,74,30.17,30.00,0,0,0,0.00
2013-2-10,68,66,62,67,64,60,100,95,85,30.01,29.89,0,0,0,0.02
2013-2-11,69,61,57,69,60,56,100,98,82,30.04,29.91,0,0,0,0.35
2013-2-12,68,62,57,68,62,57,100,100,99,29.97,29.69,0,0,0,0.12
2013-2-13,66,51,41,66,50,40,100,94,81,30.00,29.74,0,0,0,0.17
2013-2-14,58,46,39,45,41,38,100,85,56,30.10,29.98,0,0,0,0.01
2013-2-15,63,50,36,49,41,36,100,76,39,30.11,30.00,0,0,0,0.01
2013-2-16,55,46,32,41,27,13,84,52,20,30.23,30.05,0,0,0,0.00
2013-2-17,54,44,28,42,32,25,89,63,39,30.32,30.19,0,0,0,0.00
2013-2-18,66,58,52,59,52,41,93,79,60,30.19,29.93,0,0,0,0.01
2013-2-19,67,59,45,60,43,24,100,62,21,30.17,29.91,0,0,0,0.49
2013-2-20,56,48,42,40,31,23,83,53,29,30.19,29.97,0,0,0,0.00
2013-2-21,64,57,47,63,52,36,100,84,60,29.97,29.76,0,0,0,0.00
2013-2-22,68,63,58,68,60,50,100,89,54,29.91,29.80,0,0,0,1.43
2013-2-23,60,57,55,59,56,50,100,95,83,29.88,29.74,0,0,1,1.35
2013-2-24,65,57,47,60,53,46,100,86,68,29.91,29.72,0,0,0,0.27
2013-2-25,67,62,58,67,61,52,100,100,77,29.72,29.43,1,0,3,3.80
2013-2-26,60,54,47,52,41,35,89,62,45,29.86,29.48,0,0,0,0.00
2013-2-27,62,54,45,53,47,38,99,78,44,29.97,29.85,0,0,0,0.00
2013-2-28,59,50,41,43,36,25,89,59,28,30.05,29.94,0,0,0,0.00